Temperature
14 14 14 14 14 14 13 13 13 13 12 12 12 11 11 11 11 11 11 11 11 10 10 10 10 10 10 10 10 10 10 10 10 10 10 10 10 9 9 9 9 9 9
14 14 14 14 14 14 13 13 13 13 12 12 12 11 11 11 11 11 11 11 10 10 10 10 10 10 9 9 10 10 10 10 10 10 9 9 9 9 9 9 9 8 8
14 14 14 14 14 13 13 13 12 12 12 11 11 11 11 11 11 11 11 10 10 10 10 10 10 9 9 9 9 9 9 9 9 9 9 9 9 9 9 9 9 8 8
13 14 14 14 14 13 13 13 12 12 12 11 11 11 11 11 11 11 10 10 10 10 10 10 10 9 9 9 9 9 9 9 9 9 9 9 9 9 9 8 8 8 8
13 13 13 14 13 13 13 13 12 12 11 11 11 11 10 10 10 10 10 10 10 10 10 10 10 10 9 9 9 9 9 9 9 9 9 9 9 9 8 8 8 8 8
13 13 13 13 13 13 13 12 12 11 11 11 11 10 10 10 10 10 10 10 10 10 10 10 10 10 10 10 9 9 9 9 9 9 9 9 9 8 8 8 8 8 7
12 13 13 13 13 13 13 12 12 11 11 10 10 10 10 10 10 10 10 10 10 10 10 10 10 10 10 10 10 9 9 9 9 9 9 9 8 8 8 8 7 7 7
12 12 12 12 13 12 12 12 12 11 10 10 10 9 9 9 10 10 10 10 10 10 10 10 10 10 10 10 10 9 9 9 9 9 9 8 8 8 8 8 7 7 7
12 12 12 12 13 13 12 12 12 12 11 10 10 10 10 10 10 10 10 10 10 10 10 10 10 10 10 10 10 9 9 9 9 9 9 8 8 8 8 7 7 7 7
11 12 12 12 12 13 13 12 12 12 11 10 10 10 11 11 10 10 10 10 10 10 10 10 10 10 10 10 10 9 9 9 9 9 8 8 8 8 7 7 7 6 6
11 11 12 12 12 12 12 12 12 12 11 11 11 10 11 11 11 11 10 10 10 10 10 10 10 10 10 10 10 9 9 9 9 9 8 8 8 8 7 7 7 6 6
11 11 11 12 12 12 12 12 12 12 11 11 11 11 11 11 11 11 11 11 10 10 10 10 10 10 10 10 10 9 9 9 9 8 8 8 8 7 7 7 6 6 5
10 10 11 11 12 12 12 12 12 11 11 11 11 11 11 11 12 12 12 11 10 10 10 10 10 10 10 10 10 9 9 9 8 8 8 8 8 7 7 6 6 6 5
10 11 11 11 11 12 12 12 11 11 11 11 11 11 11 11 11 11 11 11 10 10 10 10 10 10 10 10 9 9 9 9 8 8 8 8 7 7 7 6 6 5 5
10 10 11 11 11 11 12 11 11 11 11 11 11 11 11 11 11 11 11 11 11 10 10 10 10 10 10 10 9 9 9 8 8 8 8 7 7 7 6 6 5 5 4
10 10 11 11 11 11 11 11 11 11 11 11 11 11 11 11 11 11 11 11 11 11 10 11 10 10 10 9 9 9 8 8 8 7 7 7 7 6 6 5 5 4 4
10 10 10 10 11 11 11 11 11 11 11 11 11 11 11 11 11 11 10 10 10 10 11 11 10 10 9 9 9 8 8 8 8 7 7 7 6 6 5 5 4 4 3
10 10 10 10 10 11 11 11 11 11 11 11 11 11 11 10 11 11 10 10 10 10 10 10 10 9 9 9 8 8 8 8 7 7 7 6 6 5 5 4 4 4 3
9 10 10 10 10 11 11 11 11 11 11 11 11 11 11 11 11 11 10 10 10 10 10 10 10 9 9 8 8 8 8 7 7 6 6 6 5 5 4 4 4 3 3
9 9 10 10 10 10 11 11 11 11 11 11 11 11 11 11 11 11 10 10 10 10 10 9 9 9 8 8 8 8 7 7 7 6 6 5 5 4 4 4 3 3 2
8 9 9 10 10 10 11 11 11 11 11 11 11 11 11 11 11 11 10 10 10 10 9 9 9 9 8 8 8 8 7 7 6 6 6 5 5 4 4 3 3 3 2
8 9 9 9 10 10 10 11 11 11 11 11 10 10 10 10 10 10 10 10 10 9 9 9 9 8 8 8 7 7 7 6 6 5 5 5 4 4 4 3 3 2 2
7 8 8 9 9 10 10 10 11 11 10 11 10 10 10 10 10 10 10 9 9 9 9 9 9 8 8 8 7 7 6 6 5 5 5 4 4 4 3 3 2 2 1
7 7 8 9 9 9 10 10 10 10 10 10 10 10 10 10 10 10 9 9 9 9 9 8 8 8 7 7 7 6 6 5 5 4 4 4 4 4 3 2 2 1 1
6 7 8 8 9 9 9 10 10 10 10 10 10 10 10 10 10 9 9 9 9 8 8 8 7 7 7 7 6 6 5 5 4 4 4 3 3 3 3 2 2 1 0
6 7 7 8 8 9 9 9 9 9 9 9 9 9 9 9 10 9 9 9 9 8 8 8 7 7 6 6 5 5 5 4 4 3 3 3 2 2 2 2 2 1 0
Wind_Speed
10 10 9 10 11 12 12 10 10 10 8 8 9 10 9 10 11 10 11 12 12 11 11 10 9 8 8 7 6 5 4 3 3 2 1 1 2 2 3 4 5 6 7
11 11 10 10 11 13 13 12 11 10 8 7 7 8 9 10 11 11 11 11 12 11 11 10 9 9 8 7 6 6 5 4 4 3 3 3 4 4 5 6 7 8 8
13 12 12 11 11 14 14 11 10 9 8 7 8 8 8 9 10 10 11 10 10 11 11 10 10 9 8 8 7 6 6 6 5 5 5 5 6 6 7 7 8 9 10
15 13 12 12 13 13 11 11 11 9 9 8 7 7 6 7 8 9 10 10 10 9 10 11 10 10 9 9 8 8 7 7 7 7 7 7 8 8 8 9 10 10 11
16 14 12 12 14 12 10 12 10 9 10 9 8 6 5 6 6 7 7 9 10 10 10 10 11 10 10 10 9 9 8 8 8 8 8 9 9 9 10 10 11 11 12
16 15 12 14 14 12 11 11 12 10 9 9 8 5 4 5 5 6 7 7 9 11 11 11 10 10 11 11 10 10 10 10 10 10 10 10 10 11 11 11 12 12 13
15 15 13 15 15 13 14 14 10 12 9 8 6 4 1 1 4 5 5 5 6 9 11 11 11 10 10 11 12 12 11 11 11 11 10 11 11 11 12 12 12 13 14
16 15 16 15 15 13 14 14 12 9 7 9 7 7 3 1 3 4 5 6 6 6 7 10 11 11 11 10 11 13 13 12 12 11 11 11 12 12 13 12 13 13 14
17 16 17 15 16 16 15 16 16 12 11 8 8 7 6 5 3 3 4 5 6 5 5 7 10 12 12 12 12 13 13 13 12 12 12 12 12 12 12 12 13 13 15
17 17 18 17 16 15 16 17 16 12 14 12 8 4 3 5 5 3 2 4 6 6 6 6 7 10 12 12 13 13 13 13 12 12 12 12 12 12 12 12 13 14 14
16 17 17 17 17 15 16 16 15 15 13 12 10 6 4 3 3 4 4 3 3 5 6 6 6 7 10 11 11 12 12 11 11 11 11 11 12 12 12 12 13 13 14
12 16 16 16 17 15 17 16 16 18 14 12 10 7 6 5 5 4 4 4 4 3 4 5 5 6 9 10 11 11 11 10 10 10 10 10 11 11 12 12 12 13 13
10 15 15 16 16 15 16 15 16 17 16 16 13 8 6 5 5 4 4 3 3 2 2 3 5 6 7 8 9 10 9 9 9 9 9 9 10 10 11 11 12 12 13
11 15 16 16 17 16 16 15 14 15 15 15 14 11 7 6 6 5 5 5 3 1 2 4 2 4 6 8 9 9 7 8 8 8 8 9 9 9 10 11 11 12 12
11 15 15 16 17 17 17 16 14 15 15 14 13 12 9 7 6 5 5 6 6 4 5 5 3 3 5 7 8 7 6 7 7 7 8 8 8 8 9 9 10 11 12
11 15 16 16 17 17 17 16 13 14 15 13 11 12 10 7 7 6 6 5 5 5 4 5 4 2 3 4 6 6 6 5 5 6 6 7 7 8 8 9 10 11 11
10 13 16 16 17 17 17 16 15 16 16 14 12 13 12 9 8 7 6 5 5 4 4 3 2 1 3 3 2 3 4 3 3 4 5 6 6 7 7 8 9 10 10
8 11 13 15 16 17 17 17 17 17 17 17 15 14 13 10 10 8 7 7 6 5 5 4 2 2 2 3 3 2 1 2 2 4 5 5 5 6 6 7 8 9 10
7 9 11 13 15 16 16 16 17 16 17 16 16 15 14 13 11 8 8 8 6 5 4 4 3 2 1 1 1 1 0 0 1 3 4 4 4 5 6 6 7 8 10
6 8 11 12 13 15 16 16 16 15 15 14 14 14 14 14 13 11 10 9 7 6 4 4 3 2 2 1 2 1 1 1 1 2 3 3 3 4 5 6 7 8 9
5 6 8 10 10 11 13 15 16 15 15 14 12 12 12 14 14 12 9 9 9 7 5 4 3 2 2 2 2 2 2 1 1 1 2 2 2 2 3 5 7 8 9
3 5 7 9 10 9 12 16 16 14 14 14 13 11 11 12 14 14 13 12 11 9 8 6 4 4 4 3 2 2 2 1 2 1 1 3 1 2 2 4 7 8 9
3 4 5 7 9 10 13 15 17 14 13 14 13 12 10 10 13 10 10 10 9 9 10 8 6 6 5 5 5 3 3 2 2 1 0 2 2 2 3 5 7 8 9
3 4 5 6 7 9 13 15 17 13 11 12 13 14 13 12 12 13 11 8 6 5 6 6 6 5 5 5 5 4 4 2 1 0 0 1 2 2 3 5 6 7 9
3 3 4 5 7 8 12 14 14 10 9 10 11 12 13 13 16 17 13 11 8 5 6 9 8 7 8 8 7 5 3 2 1 1 0 1 2 2 3 3 4 7 9
3 2 3 4 6 7 10 13 14 8 9 8 9 10 14 15 18 19 14 12 11 8 7 7 6 6 5 5 6 4 4 3 1 2 2 1 1 1 2 2 2 4 7
Wind_Direction
180 178 178 175 172 168 168 165 165 166 166 167 164 159 157 160 161 162 167 171 172 173 173 176 179 180 178 179 181 181 182 190 193 198 223 270 294 306 314 319 318 319 319
183 180 179 180 178 175 173 170 170 170 171 168 167 163 162 164 165 166 170 175 179 181 183 186 190 191 192 193 196 200 209 220 226 234 250 266 280 289 296 301 304 307 310
186 183 181 182 180 177 174 170 169 165 167 168 169 166 164 166 167 170 174 178 186 192 194 196 196 200 202 205 210 215 226 236 245 246 255 264 271 279 286 291 296 301 304
192 184 184 183 180 176 177 174 171 168 170 168 169 170 167 169 172 176 179 183 188 196 202 202 203 210 215 218 222 228 236 243 250 253 259 266 272 276 281 288 293 296 298
196 187 188 184 179 177 179 178 174 170 169 168 168 166 168 172 179 181 186 191 194 197 201 205 208 215 223 228 232 236 243 249 251 256 263 268 273 277 281 285 291 294 298
198 189 189 185 178 177 179 178 172 169 167 165 161 157 168 180 181 187 193 196 200 202 203 208 210 217 224 232 239 243 248 253 256 258 264 269 274 278 282 285 290 294 298
201 191 191 186 181 182 182 174 170 167 165 156 138 130 78 194 199 201 194 192 203 205 203 207 209 215 224 231 238 246 252 257 261 263 265 270 274 279 283 286 290 295 298
201 196 186 189 184 181 180 178 169 165 167 164 152 145 151 245 246 216 203 200 205 202 204 209 210 213 221 228 236 243 251 258 262 266 268 272 277 282 286 288 292 296 299
202 197 188 189 186 183 184 183 177 167 170 173 166 156 160 197 207 234 215 207 203 204 211 212 213 217 220 225 233 241 247 255 262 268 273 276 279 284 287 290 295 299 304
201 196 190 189 189 185 184 186 179 172 169 174 176 176 159 149 157 185 240 221 209 211 213 214 215 220 222 225 231 237 244 249 258 268 275 279 283 288 290 294 298 302 305
198 195 193 191 189 187 185 186 180 175 176 176 175 166 153 142 136 152 194 209 223 226 216 215 215 221 224 225 229 234 238 244 255 267 276 282 286 290 294 298 300 303 307
197 196 195 193 189 187 187 187 184 179 179 177 176 171 167 164 171 162 178 189 206 231 223 220 218 219 222 220 223 228 235 243 252 263 272 280 286 291 296 300 302 305 307
199 196 197 193 189 188 186 185 185 183 180 181 182 184 182 179 157 153 154 166 186 227 230 234 224 216 215 208 213 222 231 242 252 259 267 276 282 287 294 299 302 304 308
202 198 194 193 191 188 185 185 185 184 183 185 185 182 184 185 171 163 160 158 162 214 233 241 230 212 204 198 208 214 224 238 246 254 264 271 277 283 290 296 299 303 306
202 196 192 193 191 187 184 183 187 185 183 187 187 185 188 188 181 175 167 165 165 191 225 229 220 212 197 194 203 203 215 231 242 256 266 270 273 280 288 294 299 303 306
199 192 191 193 189 186 183 184 186 183 183 187 185 186 192 191 182 178 178 180 175 177 208 217 213 203 181 183 196 194 208 225 240 256 265 271 276 283 289 295 299 303 306
195 194 193 191 189 186 185 185 186 183 184 186 186 189 193 186 184 183 181 181 184 174 204 224 199 173 163 169 161 182 198 214 244 264 273 276 281 286 293 297 302 306 308
199 197 194 191 191 188 186 186 186 185 186 188 189 189 191 188 188 184 182 188 192 185 187 209 200 176 169 172 169 174 171 221 248 276 281 281 287 292 298 302 305 308 310
209 203 193 193 193 190 187 187 185 186 189 190 189 190 190 186 192 187 183 189 190 185 183 186 188 165 148 136 137 151 186 269 285 291 293 288 291 300 306 308 309 312 313
214 209 198 192 192 189 187 186 184 186 188 189 189 189 189 190 192 186 187 189 182 176 170 169 175 163 153 135 131 179 238 253 292 316 310 302 301 312 314 314 315 314 314
220 213 200 193 191 186 188 185 183 184 185 186 187 187 189 189 187 185 185 183 177 176 172 175 178 164 171 167 195 183 206 256 281 310 313 303 306 315 321 321 318 315 318
226 218 204 196 192 192 186 182 181 182 184 184 185 184 184 183 180 177 173 171 173 178 183 181 183 187 197 194 176 166 168 175 274 307 308 292 307 289 295 307 315 321 325
243 226 212 200 196 188 178 179 178 180 184 184 182 179 177 178 171 166 161 158 165 170 174 176 180 194 188 188 170 174 185 193 219 243 325 276 306 286 290 311 317 323 330
261 239 220 207 198 187 177 177 177 179 180 180 179 177 174 172 171 163 155 153 151 159 168 164 171 179 173 165 167 173 172 152 120 351 95 263 292 285 305 314 322 334 338
283 270 222 205 199 188 178 174 169 177 178 175 173 172 171 170 167 158 155 152 146 137 124 132 133 132 134 137 135 124 126 124 217 254 228 232 280 299 302 295 320 335 339
273 281 242 206 197 188 176 170 166 170 169 165 163 167 170 168 166 162 164 161 162 160 142 128 116 106 108 116 125 142 160 157 168 232 224 187 249 323 310 298 305 327 336
Height
1472 1476 1479 1482 1485 1487 1490 1494 1497 1500 1503 1505 1507 1510 1512 1514 1515 1517 1518 1520 1521 1522 1523 1523 1524 1524 1524 1524 1524 1524 1525 1524 1524 1523 1523 1522 1521 1520 1519 1518 1517 1515 1514
1467 1470 1474 1477 1480 1483 1486 1489 1493 1497 1500 1503 1505 1507 1510 1512 1514 1515 1517 1518 1519 1520 1521 1522 1523 1523 1523 1523 1523 1523 1523 1523 1523 1522 1521 1521 1520 1519 1518 1517 1515 1514 1512
1461 1464 1468 1471 1475 1478 1482 1485 1489 1493 1497 1500 1503 1505 1508 1510 1512 1513 1515 1516 1517 1519 1520 1521 1521 1522 1522 1522 1522 1522 1522 1522 1521 1520 1520 1519 1518 1517 1516 1515 1513 1511 1509
1455 1458 1461 1465 1469 1473 1477 1480 1484 1488 1492 1496 1499 1502 1505 1507 1509 1511 1513 1514 1515 1516 1518 1519 1519 1520 1520 1520 1520 1520 1520 1520 1519 1519 1518 1517 1516 1515 1514 1512 1511 1509 1507
1448 1451 1455 1459 1463 1467 1471 1475 1479 1483 1487 1492 1496 1500 1502 1505 1507 1508 1510 1512 1513 1514 1515 1516 1517 1518 1518 1518 1518 1518 1518 1518 1517 1517 1516 1515 1514 1512 1511 1510 1508 1506 1504
1442 1445 1449 1453 1457 1461 1465 1470 1473 1478 1483 1488 1493 1497 1500 1503 1505 1506 1507 1509 1510 1512 1513 1514 1515 1515 1516 1516 1516 1516 1516 1516 1515 1514 1513 1512 1511 1510 1508 1506 1505 1503 1500
1435 1438 1442 1446 1450 1454 1458 1463 1468 1473 1478 1484 1489 1493 1498 1500 1502 1503 1504 1506 1507 1509 1510 1511 1512 1513 1513 1514 1514 1514 1513 1513 1512 1512 1511 1509 1508 1507 1505 1503 1501 1499 1497
1427 1431 1434 1438 1441 1447 1452 1457 1462 1466 1472 1477 1481 1487 1493 1497 1497 1499 1501 1502 1504 1505 1507 1508 1509 1510 1510 1511 1511 1511 1511 1510 1509 1509 1507 1506 1505 1503 1501 1499 1498 1495 1493
1419 1423 1427 1432 1435 1440 1444 1450 1454 1459 1464 1472 1477 1480 1485 1488 1492 1495 1496 1498 1500 1502 1503 1505 1506 1507 1507 1508 1508 1508 1508 1507 1506 1505 1504 1503 1501 1500 1498 1496 1494 1491 1489
1410 1416 1420 1425 1429 1433 1438 1443 1447 1453 1458 1464 1471 1475 1479 1481 1485 1488 1492 1494 1496 1498 1500 1501 1502 1503 1504 1504 1504 1504 1504 1504 1503 1502 1501 1499 1497 1496 1494 1492 1489 1487 1484
1403 1408 1412 1418 1423 1426 1431 1437 1441 1447 1453 1457 1462 1468 1473 1476 1479 1481 1485 1488 1492 1494 1496 1498 1499 1500 1500 1501 1501 1501 1501 1500 1499 1498 1497 1495 1493 1492 1490 1487 1485 1482 1480
1395 1400 1406 1411 1416 1420 1425 1430 1435 1441 1446 1453 1458 1462 1467 1470 1473 1477 1479 1482 1486 1489 1492 1494 1495 1496 1496 1497 1497 1497 1497 1496 1495 1494 1493 1491 1489 1487 1485 1483 1480 1478 1475
1387 1393 1399 1404 1408 1414 1419 1425 1430 1434 1441 1447 1452 1457 1463 1467 1470 1474 1477 1479 1482 1485 1488 1490 1491 1492 1493 1493 1493 1494 1493 1492 1491 1490 1488 1487 1485 1483 1480 1478 1475 1473 1470
1380 1386 1392 1397 1402 1408 1413 1419 1424 1430 1436 1441 1447 1453 1458 1463 1467 1470 1473 1476 1478 1481 1483 1485 1487 1488 1489 1489 1490 1490 1489 1488 1487 1486 1484 1482 1480 1478 1476 1473 1471 1468 1465
1376 1379 1385 1391 1396 1402 1407 1413 1418 1424 1430 1436 1442 1447 1453 1458 1463 1467 1470 1473 1475 1476 1478 1480 1482 1484 1485 1485 1486 1486 1485 1484 1483 1482 1480 1478 1476 1473 1471 1469 1466 1463 1461
1369 1373 1379 1385 1390 1395 1401 1408 1413 1419 1425 1431 1437 1443 1448 1453 1458 1462 1466 1469 1471 1473 1474 1476 1478 1480 1481 1482 1482 1482 1481 1480 1479 1478 1476 1474 1471 1469 1467 1464 1462 1459 1456
1363 1368 1374 1379 1383 1389 1396 1402 1408 1414 1419 1425 1432 1438 1442 1448 1453 1457 1461 1464 1467 1469 1471 1473 1475 1476 1477 1478 1478 1478 1477 1476 1475 1474 1472 1470 1467 1465 1462 1460 1457 1455 1452
1360 1363 1368 1373 1377 1384 1390 1396 1402 1408 1414 1420 1426 1432 1437 1443 1448 1452 1456 1459 1463 1465 1468 1468 1471 1472 1473 1474 1474 1474 1474 1473 1471 1470 1468 1466 1463 1461 1458 1456 1453 1450 1447
1357 1360 1364 1368 1373 1379 1384 1390 1397 1402 1409 1415 1421 1426 1431 1437 1442 1446 1451 1455 1458 1461 1464 1465 1466 1468 1469 1470 1470 1470 1470 1469 1467 1466 1464 1462 1459 1457 1454 1452 1449 1446 1444
1354 1356 1360 1364 1369 1374 1379 1385 1391 1398 1404 1410 1416 1421 1427 1432 1436 1441 1446 1450 1454 1457 1459 1461 1462 1464 1465 1466 1466 1466 1466 1465 1464 1462 1460 1458 1456 1453 1451 1448 1445 1443 1439
1351 1353 1356 1360 1365 1370 1375 1380 1386 1393 1399 1406 1411 1417 1422 1427 1432 1437 1441 1445 1449 1452 1454 1456 1458 1460 1461 1461 1462 1462 1461 1461 1459 1458 1456 1455 1452 1450 1447 1444 1442 1439 1436
1347 1350 1353 1356 1360 1365 1370 1376 1382 1388 1394 1400 1406 1412 1418 1423 1428 1432 1437 1441 1445 1447 1450 1452 1453 1455 1456 1457 1458 1458 1457 1456 1455 1455 1452 1451 1449 1446 1444 1441 1438 1435 1432
1344 1346 1350 1353 1357 1362 1367 1372 1378 1384 1390 1396 1401 1407 1413 1418 1423 1428 1432 1437 1440 1443 1446 1448 1449 1451 1452 1453 1454 1454 1453 1453 1452 1450 1449 1447 1445 1443 1441 1438 1435 1432 1429
1342 1344 1347 1350 1354 1358 1364 1369 1375 1381 1386 1391 1397 1402 1408 1413 1418 1423 1428 1432 1435 1438 1441 1444 1445 1447 1449 1450 1450 1451 1450 1449 1448 1447 1446 1444 1442 1440 1437 1435 1432 1429 1426
1340 1342 1344 1347 1351 1355 1361 1367 1372 1377 1382 1387 1393 1398 1404 1408 1414 1419 1423 1427 1431 1434 1437 1439 1441 1443 1445 1446 1447 1447 1446 1446 1444 1444 1443 1441 1438 1436 1434 1432 1429 1426 1423
1338 1340 1342 1345 1349 1352 1357 1363 1368 1373 1378 1383 1388 1394 1399 1404 1410 1414 1418 1422 1426 1429 1432 1435 1437 1439 1441 1442 1443 1443 1443 1442 1441 1440 1439 1438 1436 1433 1430 1428 1427 1424 1420